Location: Unspecified
(40.9447°N, 78.9903°W)
Time: 11:44:27
(UTC-04:00)

Resurs 1-4 Rocket - Pass Details

Date: 02 August 2021
Orbit: 799 x 815 km, 98.6° (Epoch: 23 September)

Event Time Altitude Azimuth Distance (km) Brightness Sun altitude
Rises 02:57:48 0° 12° (NNE) 3,337 6.5 -27.3°
Reaches altitude 10° 03:00:09 10° 11° (N) 2,399 5.5 -27.1°
Maximum altitude 03:05:27 80° 286° (WNW) 821 2.0 -26.7°
Enters shadow 03:05:33 80° 270° (W) 822 2.0 -26.7°
